K4KJQ-13 Weather Reports


time (UTC)temp
F
wind
direction
speed
knots
gust
knots
rain 1hr
in
rain 24hr
in
rain mn
in
humidity
%
barometer
mb
20260503213613 65 315 2.6 12.2 0.00 0.00 0.00 100
20260503213113 65 288 7.0 15.6 0.00 0.00 0.00 100
20260503212613 65 320 3.5 12.2 0.00 0.00 0.00 100
20260503212113 65 295 9.6 12.2 0.00 0.00 0.00 100
20260503211613 64 291 6.1 18.2 0.00 0.00 0.00 100
20260503211113 65 302 7.0 17.4 0.00 0.00 0.00 100
20260503210613 64 286 7.8 13.0 0.00 0.00 0.00 100
20260503210113 64 291 6.1 14.8 0.00 0.00 0.00 100
20260503205613 65 298 7.0 15.6 0.00 0.00 0.00 100
20260503205113 65 300 9.6 13.9 0.00 0.00 0.00 100
20260503204613 64 305 7.0 16.5 0.00 0.00 0.00 100
20260503204113 64 293 7.0 11.3 0.00 0.00 0.00 100
20260503203613 65 292 6.1 14.8 0.00 0.00 0.00 100
20260503203113 65 307 5.2 10.4 0.00 0.00 0.00 100
20260503202613 65 309 7.0 10.4 0.00 0.00 0.00 100
20260503202113 64 299 4.3 13.0 0.00 0.00 0.00 100
20260503201613 65 305 5.2 12.2 0.00 0.00 0.00 100
20260503201113 64 326 4.3 13.0 0.00 0.00 0.00 100
20260503200613 64 300 2.6 15.6 0.00 0.00 0.00 100
20260503200113 63 305 6.1 15.6 0.00 0.00 0.00 100
20260503195613 63 312 5.2 13.0 0.00 0.00 0.00 100
20260503195113 64 289 9.6 13.0 0.00 0.00 0.00 100
20260503194613 64 296 5.2 11.3 0.00 0.00 0.00 100
20260503194113 64 317 7.0 10.4 0.00 0.00 0.00 100
20260503193613 64 282 6.1 12.2 0.00 0.00 0.00 100
20260503193113 63 298 6.1 12.2 0.00 0.00 0.00 100
20260503192613 64 324 2.6 10.4 0.00 0.00 0.00 100
20260503192113 64 285 2.6 11.3 0.00 0.00 0.00 100
20260503191613 63 305 9.6 10.4 0.00 0.00 0.00 100
20260503191113 63 298 7.0 12.2 0.00 0.00 0.00 100
20260503190613 63 307 3.5 10.4 0.00 0.00 0.00 100
20260503190113 64 302 7.0 11.3 0.00 0.00 0.00 100
20260503185613 63 291 3.5 7.8 0.00 0.00 0.00 100
20260503185113 63 299 6.1 13.0 0.00 0.00 0.00 100
20260503184613 63 310 3.5 11.3 0.00 0.00 0.00 100
20260503184113 63 240 7.0 8.7 0.00 0.00 0.00 100
20260503183613 62 312 5.2 8.7 0.00 0.00 0.00 100
20260503183113 62 298 4.3 9.6 0.00 0.00 0.00 100
20260503182613 62 309 6.1 10.4 0.00 0.00 0.00 100
20260503182113 62 288 5.2 15.6 0.00 0.00 0.00 100
20260503181613 63 271 1.7 11.3 0.00 0.00 0.00 100
20260503181113 62 312 7.0 10.4 0.00 0.00 0.00 100
20260503180614 63 295 4.3 8.7 0.00 0.00 0.00 100
20260503180113 61 324 6.1 11.3 0.00 0.00 0.00 100
20260503175614 62 299 7.8 10.4 0.00 0.00 0.00 100
20260503175114 61 329 6.1 8.7 0.00 0.00 0.00 100
20260503174614 61 288 7.0 11.3 0.00 0.00 0.00 100
20260503174114 60 291 5.2 10.4 0.00 0.00 0.00 100
20260503173614 61 302 0.9 9.6 0.00 0.00 0.00 100
20260503173114 60 293 4.3 8.7 0.00 0.00 0.00 100
20260503172614 60 305 2.6 7.8 0.00 0.00 0.00 100
20260503172114 61 302 5.2 11.3 0.00 0.00 0.00 100
20260503171614 61 278 9.6 13.9 0.00 0.00 0.00 100
20260503171114 61 129 0.0 11.3 0.00 0.00 0.00 100
20260503170614 61 306 7.8 8.7 0.00 0.00 0.00 100
20260503170114 59 302 4.3 12.2 0.00 0.00 0.00 100
20260503160114 59 307 2.6 7.8 0.00 0.00 0.00 100
20260503150614 56 284 2.6 8.7 0.00 0.00 0.00 100
20260503150114 56 303 0.9 9.6 0.00 0.00 0.00 100
20260503140114 55 300 4.3 7.0 0.00 0.00 0.00 100
20260503131114 52 281 0.9 5.2 0.00 0.00 0.00 100
20260503130614 51 300 4.3 4.3 0.00 0.00 0.00 100
20260503130114 51 300 0.0 5.2 0.00 0.00 0.00 100
20260503120114 46 282 2.6 5.2 0.00 0.00 0.00 100
20260503110614 38 282 1.7 1.7 0.00 0.00 0.00 100
20260503110114 36 296 1.7 1.7 0.00 0.00 0.00 100
20260503100114 35 277 0.0 1.7 0.00 0.00 0.00 100
20260503090114 36 293 0.9 1.7 0.00 0.00 0.00 100
20260503081614 35 270 0.9 1.7 0.00 0.00 0.00 100
20260503081114 35 296 0.9 1.7 0.00 0.00 0.00 100
20260503080614 35 272 0.0 0.9 0.00 0.00 0.00 100
20260503080114 35 282 0.9 1.7 0.00 0.00 0.00 100
20260503072614 35 285 0.0 0.9 0.00 0.00 0.00 100
20260503072114 35 264 0.0 0.0 0.00 0.00 0.00 100
20260503071614 34 264 0.0 0.0 0.00 0.00 0.00 100
20260503071114 35 264 0.0 0.0 0.00 0.00 0.00 100
20260503070614 35 264 0.0 0.0 0.00 0.00 0.00 100
20260503070114 36 264 0.0 0.0 0.00 0.00 0.00 100
20260503060114 36 35 0.0 0.0 0.00 0.00 0.00 100
20260503055114 37 35 0.0 0.0 0.00 0.00 0.00 100
20260503054614 37 35 0.0 0.0 0.00 0.00 0.00 100
20260503054114 37 35 0.0 0.0 0.00 0.00 0.00 100
20260503053614 37 35 0.0 0.0 0.00 0.00 0.00 100
20260503053114 37 35 0.0 0.0 0.00 0.00 0.00 100
20260503052614 37 35 0.0 0.0 0.00 0.00 0.00 100
20260503052114 37 35 0.0 0.0 0.00 0.00 0.00 100
20260503051614 38 35 0.0 0.0 0.00 0.00 0.00 100
20260503051114 38 35 0.0 0.0 0.00 0.00 0.00 100
20260503050614 39 35 0.0 0.0 0.00 0.00 0.00 100
20260503050114 40 35 0.0 0.0 0.00 0.00 0.00 100
20260503045614 40 35 0.0 0.0 0.00 0.00 0.00 100
20260503045114 41 35 0.0 0.0 0.00 0.00 0.00 100
20260503044614 42 35 0.0 0.9 0.00 0.00 0.00 100
20260503044114 42 61 0.0 0.9 0.00 0.00 0.00 100
20260503043614 42 78 0.0 0.9 0.00 0.00 0.00 100
20260503043114 43 29 0.0 0.0 0.00 0.00 0.00 100
20260503042614 44 29 0.0 1.7 0.00 0.00 0.00 100
20260503042114 44 340 0.0 1.7 0.00 0.00 0.00 100
20260503041614 43 45 0.9 3.5 0.00 0.00 0.00 100
20260503041114 44 12 1.7 4.3 0.00 0.00 0.00 100
20260503040614 45 49 1.7 6.1 0.00 0.00 0.00 100
20260503040114 44 57 2.6 3.5 0.00 0.00 0.00 100
20260503035614 44 42 0.0 4.3 0.00 0.00 0.00 100
20260503035114 45 35 1.7 4.3 0.00 0.00 0.00 100
20260503034614 45 57 3.5 4.3 0.00 0.00 0.00 100
20260503034114 44 16 2.6 5.2 0.00 0.00 0.00 100
20260503033614 44 28 2.6 3.5 0.00 0.00 0.00 100
20260503033114 44 37 1.7 3.5 0.00 0.00 0.00 100
20260503032614 44 28 0.0 1.7 0.00 0.00 0.00 100
20260503032114 44 11 0.0 3.5 0.00 0.00 0.00 100
20260503031614 44 12 0.0 0.0 0.00 0.00 0.00 100
20260503031114 44 70 0.0 1.7 0.00 0.00 0.00 100
20260503030614 45 11 0.0 0.9 0.00 0.00 0.00 100
20260503030114 45 23 0.0 0.9 0.00 0.00 0.00 100
20260503025614 46 36 0.0 1.7 0.00 0.00 0.00 100
20260503025114 45 5 0.0 1.7 0.00 0.00 0.00 100
20260503024614 45 11 0.0 1.7 0.00 0.00 0.00 100
20260503024114 46 11 0.0 2.6 0.00 0.00 0.00 100
20260503023614 46 15 0.0 1.7 0.00 0.00 0.00 100
20260503023114 47 355 0.9 2.6 0.00 0.00 0.00 100
20260503022614 46 18 1.7 2.6 0.00 0.00 0.00 100
20260503022114 45 57 0.0 0.9 0.00 0.00 0.00 100
20260503021614 47 39 0.0 0.0 0.00 0.00 0.00 100
20260503021114 47 39 0.0 1.7 0.00 0.00 0.00 100
20260503020614 47 47 0.9 1.7 0.00 0.00 0.00 100
20260503020114 48 25 0.9 1.7 0.00 0.00 0.00 100
20260503015614 48 47 1.7 2.6 0.00 0.00 0.00 100
20260503015114 48 14 0.0 1.7 0.00 0.00 0.00 100
20260503014614 48 7 0.0 0.9 0.00 0.00 0.00 100
20260503014114 48 23 0.0 0.9 0.00 0.00 0.00 100
20260503013614 48 11 0.0 0.9 0.00 0.00 0.00 100
20260503013114 48 16 0.0 3.5 0.00 0.00 0.00 100
20260503012614 49 340 0.9 2.6 0.00 0.00 0.00 100
20260503012114 48 351 0.0 2.6 0.00 0.00 0.00 100
20260503011614 49 28 1.7 2.6 0.00 0.00 0.00 100
20260503011114 49 7 0.0 4.3 0.00 0.00 0.00 100
20260503010614 49 327 2.6 3.5 0.00 0.00 0.00 100
20260503010114 50 19 0.0 0.9 0.00 0.00 0.00 100
20260503005614 50 18 0.0 0.9 0.00 0.00 0.00 100
20260503005114 49 1 0.9 1.7 0.00 0.00 0.00 100
20260503004614 50 4 0.9 3.5 0.00 0.00 0.00 100
20260503004114 50 22 0.0 1.7 0.00 0.00 0.00 100
20260503003614 50 42 0.0 2.6 0.00 0.00 0.00 100
20260503003114 50 19 0.0 5.2 0.00 0.00 0.00 100
20260503002614 50 315 1.7 5.2 0.00 0.00 0.00 100
20260503002114 50 7 3.5 4.3 0.00 0.00 0.00 100
20260503001614 52 350 2.6 3.5 0.00 0.00 0.00 100
20260503001114 51 350 0.9 5.2 0.00 0.00 0.00 100
20260503000614 51 45 2.6 6.1 0.00 0.00 0.00 100
20260503000114 52 358 2.6 6.1 0.00 0.00 0.00 100
20260502235614 51 352 4.3 5.2 0.00 0.00 0.00 100
20260502235114 52 343 3.5 5.2 0.00 0.00 0.00 100
20260502234614 52 351 1.7 5.2 0.00 0.00 0.00 100
20260502234114 52 347 5.2 6.1 0.00 0.00 0.00 100
20260502233614 52 11 1.7 7.0 0.00 0.00 0.00 100
20260502233114 53 307 1.7 7.8 0.00 0.00 0.00 100
20260502232614 54 340 2.6 7.8 0.00 0.00 0.00 100
20260502232114 57 341 3.5 7.0 0.00 0.00 0.00 100
20260502231614 56 358 5.2 7.8 0.00 0.00 0.00 100
20260502231114 55 345 3.5 7.8 0.00 0.00 0.00 100
20260502230614 54 354 7.0 9.6 0.00 0.00 0.00 100
20260502230114 54 9 7.0 10.4 0.00 0.00 0.00 100
20260502225614 55 358 3.5 8.7 0.00 0.00 0.00 100
20260502225114 57 330 0.0 6.1 0.00 0.00 0.00 100
20260502224614 57 358 5.2 7.0 0.00 0.00 0.00 100
20260502224114 55 316 1.7 8.7 0.00 0.00 0.00 100
20260502223614 55 350 2.6 8.7 0.00 0.00 0.00 100
20260502223114 55 358 2.6 4.3 0.00 0.00 0.00 100
20260502222614 55 0 2.6 6.1 0.00 0.00 0.00 100
20260502222114 54 338 2.6 8.7 0.00 0.00 0.00 100
20260502221614 54 8 4.3 6.1 0.00 0.00 0.00 100
20260502221114 54 26 0.0 7.0 0.00 0.00 0.00 100
20260502220614 54 46 2.6 9.6 0.00 0.00 0.00 100
20260502220114 54 19 7.0 7.0 0.00 0.00 0.00 100
20260502215614 56 358 5.2 7.8 0.00 0.00 0.00 100
20260502215114 55 313 2.6 7.8 0.00 0.00 0.00 100
20260502214614 55 358 4.3 7.8 0.00 0.00 0.00 100
20260502214114 55 33 3.5 7.8 0.00 0.00 0.00 100